Fort Lewis, WA
on Friday, November 30, 2012

Friday
Previous Day Next Day
Daily Summary
 ActualAverage (KOLM)Record (KOLM)
Temperature
Mean Temperature °F 40°F  
Max Temperature 57°F 46°F 57°F (1951)
Min Temperature 43°F 34°F 9°F (1985)
Degree Days
Heating Degree Days 15 25  
Month to date heating degree days 651  
Since 1 July heating degree days 1445  
Cooling Degree Days 0 0  
Month to date cooling degree days 0  
Year to date cooling degree days 106  
Moisture
Dew Point 47°F   
Average Humidity 90    
Maximum Humidity 100    
Minimum Humidity 62    
Precipitation
Precipitation 1.17 in 0.30 in 2.50 in (1994)
Month to date precipitation 8.63  
Year to date precipitation 42.54  
Wind
Wind Speed 7 mph   
Max Wind Speed 22 mph   
Max Gust Speed 33 mph   
Visibility 8 miles   
Events Rain   

Key: T is trace of precipitation, MM is missing value
Source: NWS Daily Summary
Time(PST)TemperatureDew PointHumidity Pressure Visibility Wind DirectionWind SpeedGust SpeedPrecipitationEvents Conditions
12:58 AM 45.9°F 45.7°F 99% 29.44 in 8.0 miles South 2.3 mph - 0.10 in Rain Light Rain
1:10 AM 46.4°F 46.4°F 100% 29.42 in 10.0 miles ESE 1.2 mph - N/A   Overcast
1:58 AM 44.6°F 44.2°F 99% 29.42 in 10.0 miles Calm Calm - 0.01 in   Mostly Cloudy
2:42 AM 46.4°F 44.6°F 93% 29.40 in 10.0 miles NW 1.2 mph - N/A   Light Drizzle
2:58 AM 45.9°F 45.5°F 99% 29.42 in 10.0 miles SSW 2.3 mph - 0.00 in Rain Light Rain
3:19 AM 46.4°F 44.6°F 93% 29.39 in 10.0 miles ENE 1.2 mph - N/A   Overcast
3:35 AM 44.6°F 44.6°F 100% 29.39 in 10.0 miles Calm Calm - N/A Rain Light Rain
3:45 AM 46.4°F 46.4°F 100% 29.39 in 10.0 miles ENE 1.2 mph - N/A   Mostly Cloudy
3:58 AM 45.7°F 45.3°F 99% 29.39 in 10.0 miles ENE 1.2 mph - 0.02 in   Mostly Cloudy
4:58 AM 44.6°F 44.4°F 99% 29.39 in 10.0 miles NNE 4.6 mph - N/A   Overcast
5:54 AM 44.6°F 42.8°F 93% 29.37 in 10.0 miles South 2.3 mph - N/A   Light Drizzle
5:58 AM 43.9°F 43.7°F 99% 29.39 in 10.0 miles South 2.3 mph - 0.00 in Rain Light Rain
6:07 AM 44.6°F 44.6°F 100% 29.37 in 10.0 miles SSE 2.3 mph - N/A   Mostly Cloudy
6:58 AM 47.7°F 46.2°F 95% 29.39 in 10.0 miles SE 10.4 mph - 0.00 in   Mostly Cloudy
7:58 AM 50.9°F 46.2°F 84% 29.42 in 10.0 miles SSE 12.7 mph - N/A   Mostly Cloudy
8:58 AM 52.9°F 45.7°F 77% 29.42 in 10.0 miles SE 12.7 mph - N/A   Mostly Cloudy
9:58 AM 54.5°F 44.6°F 69% 29.43 in 10.0 miles SSE 13.8 mph - N/A   Mostly Cloudy
10:58 AM 56.1°F 44.8°F 66% 29.43 in 10.0 miles SSE 21.9 mph 33.4 mph N/A   Mostly Cloudy
11:58 AM 56.7°F 44.4°F 64% 29.42 in 10.0 miles SSE 20.7 mph 29.9 mph N/A   Mostly Cloudy
12:58 PM 57.0°F 44.2°F 62% 29.42 in 10.0 miles SSE 20.7 mph 29.9 mph N/A   Mostly Cloudy
1:13 PM 57.2°F 44.6°F 63% 29.42 in 10.0 miles SSE 21.9 mph 28.8 mph N/A Rain Light Rain
1:33 PM 55.4°F 46.4°F 72% 29.42 in 10.0 miles SSE 17.3 mph 26.5 mph N/A   Mostly Cloudy
1:58 PM 55.8°F 45.5°F 68% 29.44 in 10.0 miles SSE 16.1 mph 25.3 mph 0.01 in   Mostly Cloudy
2:17 PM 55.4°F 46.4°F 72% 29.42 in 10.0 miles SSE 16.1 mph 28.8 mph N/A   Light Drizzle
2:45 PM 53.6°F 48.2°F 82% 29.42 in 10.0 miles South 10.4 mph - N/A   Mostly Cloudy
2:58 PM 53.4°F 47.3°F 80% 29.44 in 10.0 miles South 10.4 mph 17.3 mph 0.01 in   Mostly Cloudy
3:05 PM 53.6°F 46.4°F 77% 29.43 in 10.0 miles South 9.2 mph - N/A   Light Drizzle
3:58 PM 52.2°F 48.7°F 88% 29.44 in 9.0 miles South 6.9 mph - 0.03 in Rain Light Rain
4:25 PM 51.8°F 50.0°F 94% 29.44 in 7.0 miles SSW 8.1 mph - N/A Rain Light Rain
4:30 PM 51.8°F 48.2°F 88% 29.45 in 2.5 miles South 12.7 mph 28.8 mph N/A Rain Rain
4:35 PM 50.0°F 48.2°F 94% 29.45 in 2.0 miles South 12.7 mph 28.8 mph N/A Rain Light Rain
4:40 PM 50.0°F 48.2°F 94% 29.44 in 6.0 miles SSW 11.5 mph 24.2 mph N/A Rain Light Rain
4:45 PM 50.0°F 48.2°F 94% 29.44 in 7.0 miles SSW 11.5 mph 16.1 mph N/A Rain Light Rain
4:58 PM 50.7°F 48.7°F 93% 29.46 in 9.0 miles SW 8.1 mph - 0.23 in Rain Light Rain
5:31 PM 50.0°F 48.2°F 94% 29.45 in 8.0 miles SW 10.4 mph - N/A Rain Light Rain
5:51 PM 50.0°F 48.2°F 94% 29.46 in 4.0 miles South 9.2 mph 17.3 mph N/A Rain Light Rain
5:58 PM 49.1°F 47.1°F 93% 29.48 in 5.0 miles South 9.2 mph - 0.15 in Rain Light Rain
6:40 PM 48.2°F 46.4°F 93% 29.45 in 10.0 miles South 4.6 mph - N/A   Overcast
6:44 PM 48.2°F 46.4°F 93% 29.45 in 10.0 miles SSE 4.6 mph - N/A   Light Drizzle
6:58 PM 48.2°F 46.8°F 95% 29.47 in 10.0 miles SSE 3.5 mph - 0.05 in   Light Drizzle
7:03 PM 48.2°F 46.4°F 93% 29.44 in 10.0 miles ESE 3.5 mph - N/A   Light Drizzle
7:58 PM 47.7°F 47.5°F 99% 29.45 in 7.0 miles SSE 2.3 mph - 0.09 in Rain Light Rain
8:58 PM 48.6°F 48.2°F 99% 29.43 in 5.0 miles East 5.8 mph - 0.13 in Rain Light Rain
9:48 PM 48.2°F 48.2°F 100% 29.40 in 5.0 miles East 4.6 mph - N/A Rain Light Rain
9:58 PM 48.9°F 48.4°F 98% 29.42 in 6.0 miles ESE 5.8 mph - 0.09 in Rain Light Rain
10:16 PM 48.2°F 48.2°F 100% 29.41 in 4.0 miles SE 4.6 mph - N/A Rain Rain
10:26 PM 48.2°F 48.2°F 100% 29.41 in 5.0 miles South 4.6 mph - N/A Rain Light Rain
10:36 PM 48.2°F 48.2°F 100% 29.41 in 3.0 miles South 6.9 mph - N/A Rain Heavy Rain
10:41 PM 50.0°F 48.2°F 94% 29.41 in 4.0 miles SSE 9.2 mph - N/A Rain Rain
10:51 PM 50.0°F 48.2°F 94% 29.40 in 9.0 miles SE 10.4 mph - N/A Rain Light Rain
10:58 PM 49.6°F 48.6°F 96% 29.40 in 9.0 miles SSE 19.6 mph 25.3 mph 0.24 in Rain Light Rain
11:28 PM 50.0°F 46.4°F 87% 29.41 in 10.0 miles SSE 13.8 mph 20.7 mph N/A   Overcast
11:58 PM 49.6°F 46.9°F 90% 29.42 in 10.0 miles SSE 10.4 mph - 0.01 in   Mostly Cloudy
Moon Phase
Nov. 30 Dec. 06 Dec. 13 Dec. 20 Dec. 28
Sunrise:07:35 AM (PST) Moon Rise:06:23 PM (PST)11/30
Sunset:04:23 PM (PST) Moon Set:09:10 AM (PST)11/30

Copyright © 2014 The Weather Underground, Inc.